Location: Blue Sky Observatory
(43.1153°N, 70.9036°W)
Time: 01:36:12
(UTC-04:00)

Amateur Radio Satellites - All Passes

Search period start: 23 July 2014 01:06
Search period end: 24 July 2014 01:06
Location: Blue Sky Observatory, 43.1153°N, 70.9036°W

Satellite Date Start Highest point End Downlink Frequencies (MHz)
Time Altitude Azimuth
Oscar 16 23 Jul 01:28:26 01:32:36 24° 94° (E) 01:36:45 437.025 USB, Beacon 2401.1428
Lituanica SAT-1 23 Jul 01:31:58 01:34:01 35° 333° (NNW) 01:36:05 437.275 MHz beacon
JAS-1B 23 Jul 01:33:36 01:38:10 14° 79° (E) 01:42:30 435.800 - 435.900 CW/SSB
ITAMSAT 1 23 Jul 01:36:47 01:38:53 12° 88° (E) 01:40:59 435.822 SSB
AO-27 23 Jul 01:52:57 01:56:33 19° 92° (E) 02:00:06 436.795 MHz FM
Uribyol 2 23 Jul 01:56:35 02:00:26 21° 93° (E) 02:04:16 436.500 FM
UOSAT-12 23 Jul 01:57:42 02:01:34 25° 247° (WSW) 02:05:23 437.025 FM, 437.400 FM
OPAL 23 Jul 02:01:43 02:02:51 11° 54° (NE) 02:03:59 ?
Sapphire 23 Jul 02:04:46 02:10:00 54° 115° (ESE) 02:15:16 437.095 MHz 1200 baud AX-25 AFSK
ISS 23 Jul 02:10:54 02:14:12 62° 143° (SE) 02:17:32 145.800 FM
AO-Echo 23 Jul 02:11:01 02:15:26 28° 94° (E) 02:19:43 ?
RS-15 23 Jul 02:15:17 02:21:51 18° 262° (W) 02:28:35 29.354 - 29.394 USB, Beacon 29.352 USB
PCSat 23 Jul 02:38:43 02:44:07 77° 301° (WNW) 02:49:34 145.825 MHz
Oscar 19 23 Jul 02:39:49 02:44:59 78° 286° (WNW) 02:50:09 437.125 CW, 437.150 USB
TMSAT-1 23 Jul 02:56:30 03:00:34 22° 93° (E) 03:04:36 436.925 FM
Lituanica SAT-1 23 Jul 03:06:45 03:07:26 11° 351° (N) 03:08:07 437.275 MHz beacon
Oscar 16 23 Jul 03:07:15 03:12:06 43° 291° (WNW) 03:16:57 437.025 USB, Beacon 2401.1428
ITAMSAT 1 23 Jul 03:13:49 03:19:01 82° 286° (WNW) 03:24:11 435.822 SSB
Gurwin Techsat 1B 23 Jul 03:15:46 03:20:52 45° 99° (E) 03:25:55 435.225 FM
AO-7 23 Jul 03:16:31 03:17:52 10° 84° (E) 03:19:13 29.400 - 29.500 MHz
JAS-1B 23 Jul 03:20:53 03:30:38 68° 101° (E) 03:39:08 435.800 - 435.900 CW/SSB
AO-27 23 Jul 03:31:20 03:36:25 56° 289° (WNW) 03:41:28 436.795 MHz FM
Uribyol 2 23 Jul 03:35:12 03:40:11 50° 290° (WNW) 03:45:08 436.500 FM
OPAL 23 Jul 03:35:57 03:40:54 76° 72° (ENE) 03:45:51 ?
ISS 23 Jul 03:48:12 03:51:09 28° 342° (NNW) 03:54:08 145.800 FM
Sapphire 23 Jul 03:49:12 03:53:44 27° 314° (NW) 03:58:18 437.095 MHz 1200 baud AX-25 AFSK
AO-Echo 23 Jul 03:49:32 03:54:16 37° 292° (WNW) 03:58:51 ?
Uosat F 23 Jul 04:02:31 04:06:12 20° 93° (E) 04:09:50 435.120 FM
Oscar 19 23 Jul 04:21:58 04:23:28 11° 304° (WNW) 04:24:58 437.125 CW, 437.150 USB
PCSat 23 Jul 04:25:12 04:28:28 16° 322° (NW) 04:31:46 145.825 MHz
TMSAT-1 23 Jul 04:35:39 04:40:45 49° 290° (WNW) 04:45:49 436.925 FM
Lituanica SAT-1 23 Jul 04:40:11 04:41:06 12° 11° (N) 04:42:01 437.275 MHz beacon
ITAMSAT 1 23 Jul 04:55:49 04:57:41 12° 304° (WNW) 04:59:32 435.822 SSB
Gurwin Techsat 1B 23 Jul 04:56:17 05:00:35 26° 296° (WNW) 05:04:51 435.225 FM
AO-7 23 Jul 05:04:02 05:12:18 62° 104° (ESE) 05:20:29 29.400 - 29.500 MHz
JAS-1B 23 Jul 05:11:56 05:20:21 35° 302° (WNW) 05:28:03 435.800 - 435.900 CW/SSB
OPAL 23 Jul 05:18:12 05:20:20 13° 268° (W) 05:22:29 ?
ISS 23 Jul 05:26:11 05:28:40 19° 2° (N) 05:31:09 145.800 FM
JAS-2 23 Jul 05:33:03 05:35:07 12° 83° (E) 05:37:08 435.800 - 435.900 CW/SSB, 435.910 FM
Uosat F 23 Jul 05:40:24 05:45:15 50° 290° (WNW) 05:50:04 435.120 FM
STRAND 1 23 Jul 05:48:40 05:53:13 33° 67° (ENE) 05:57:47 ?
KITSAT 1 23 Jul 05:50:34 05:55:00 16° 100° (E) 05:59:25 435.175 FM
Hamsat 23 Jul 05:57:44 06:01:04 22° 94° (E) 06:04:25 145.90 MHz
Lituanica SAT-1 23 Jul 06:12:17 06:14:26 46° 30° (NNE) 06:16:34 437.275 MHz beacon
MaSat-1 23 Jul 06:43:44 06:47:36 20° 47° (NE) 06:51:26 437.345 MHz
AO-7 23 Jul 06:57:27 07:04:37 34° 303° (WNW) 07:11:46 29.400 - 29.500 MHz
ISS 23 Jul 07:03:00 07:06:07 33° 22° (NNE) 07:09:13 145.800 FM
JAS-2 23 Jul 07:15:00 07:21:26 86° 104° (ESE) 07:27:03 435.800 - 435.900 CW/SSB, 435.910 FM
STRAND 1 23 Jul 07:27:46 07:32:22 32° 264° (W) 07:36:59 ?
Hamsat 23 Jul 07:33:15 07:37:06 34° 290° (WNW) 07:40:59 145.90 MHz
KITSAT 1 23 Jul 07:41:00 07:49:05 79° 119° (ESE) 07:57:13 435.175 FM
SO-67 23 Jul 07:42:55 07:46:19 50° 99° (E) 07:49:42 435.3500 MHz FM
Lituanica SAT-1 23 Jul 07:46:24 07:47:05 11° 226° (SW) 07:47:46 437.275 MHz beacon
MaSat-1 23 Jul 08:20:14 08:25:35 76° 246° (WSW) 08:30:44 437.345 MHz
Saudisat 1A 23 Jul 08:33:18 08:36:55 25° 114° (ESE) 08:40:34 436.775 MHz
ISS 23 Jul 08:39:42 08:42:55 42° 220° (SW) 08:46:07 145.800 FM
HO-68 23 Jul 09:00:37 09:06:47 30° 95° (E) 09:12:54 435.675 MHz FM
JAS-2 23 Jul 09:01:40 09:05:29 17° 306° (NW) 09:09:03 435.800 - 435.900 CW/SSB, 435.910 FM
Sapphire 23 Jul 09:10:09 09:12:19 12° 33° (NNE) 09:14:29 437.095 MHz 1200 baud AX-25 AFSK
SO-67 23 Jul 09:18:05 09:18:57 11° 296° (WNW) 09:19:50 435.3500 MHz FM
KITSAT 1 23 Jul 09:38:21 09:45:20 31° 321° (NW) 09:52:21 435.175 FM
PCSat 23 Jul 09:43:12 09:47:10 20° 42° (NE) 09:51:08 145.825 MHz
Oscar 11 23 Jul 10:10:51 10:14:59 43° 99° (E) 10:19:06 145.825 FM, Beacon 2401.500 USB
Saudisat 1A 23 Jul 10:12:11 10:16:20 39° 311° (NW) 10:20:31 436.775 MHz
FUNcube-1 23 Jul 10:15:17 10:18:03 17° 92° (E) 10:20:49 145.950 - 145.970 MHz USB
HO-68 23 Jul 10:47:51 10:54:46 54° 293° (WNW) 11:01:39 435.675 MHz FM
Sapphire 23 Jul 10:51:42 10:57:02 54° 55° (NE) 11:02:19 437.095 MHz 1200 baud AX-25 AFSK
PCSat 23 Jul 11:25:47 11:31:14 79° 242° (WSW) 11:36:38 145.825 MHz
KITSAT 1 23 Jul 11:39:55 11:43:54 14° 350° (N) 11:47:54 435.175 FM
Oscar 11 23 Jul 11:47:51 11:50:52 19° 295° (WNW) 11:53:53 145.825 FM, Beacon 2401.500 USB
FUNcube-1 23 Jul 11:50:45 11:54:40 40° 289° (WNW) 11:58:34 145.950 - 145.970 MHz USB
JAS-1B 23 Jul 12:19:09 12:24:27 17° 45° (NE) 12:30:01 435.800 - 435.900 CW/SSB
Oscar 19 23 Jul 12:20:03 12:23:56 22° 63° (ENE) 12:27:49 437.125 CW, 437.150 USB
RS-15 23 Jul 12:20:33 12:25:07 13° 96° (E) 12:29:37 29.354 - 29.394 USB, Beacon 29.352 USB
Sapphire 23 Jul 12:35:53 12:40:04 23° 253° (WSW) 12:44:15 437.095 MHz 1200 baud AX-25 AFSK
HO-68 23 Jul 12:38:47 12:40:55 12° 314° (NW) 12:43:04 435.675 MHz FM
Oscar 16 23 Jul 12:46:16 12:50:59 39° 68° (ENE) 12:55:43 437.025 USB, Beacon 2401.1428
ITAMSAT 1 23 Jul 12:54:56 12:58:57 23° 63° (ENE) 13:02:58 435.822 SSB
Gurwin Techsat 1B 23 Jul 13:02:21 13:04:02 12° 56° (NE) 13:05:42 435.225 FM
AO-27 23 Jul 13:11:44 13:16:20 32° 66° (ENE) 13:20:56 436.795 MHz FM
PCSat 23 Jul 13:12:51 13:13:42 10° 259° (W) 13:14:33 145.825 MHz
Uribyol 2 23 Jul 13:15:10 13:19:52 36° 67° (ENE) 13:24:35 436.500 FM
AO-Echo 23 Jul 13:24:20 13:29:14 41° 69° (ENE) 13:34:13 ?
SO-50 23 Jul 13:34:20 13:38:17 32° 115° (ESE) 13:42:18 436.795 FM
KITSAT 1 23 Jul 13:38:17 13:43:21 17° 21° (NNE) 13:48:24 435.175 FM
Oscar 19 23 Jul 13:58:00 14:02:56 49° 261° (W) 14:07:55 437.125 CW, 437.150 USB
JAS-1B 23 Jul 14:04:28 14:12:50 61° 67° (ENE) 14:22:22 435.800 - 435.900 CW/SSB
AO-7 23 Jul 14:14:25 14:20:23 22° 50° (NE) 14:26:21 29.400 - 29.500 MHz
TMSAT-1 23 Jul 14:18:00 14:22:51 38° 68° (ENE) 14:27:43 436.925 FM
RS-15 23 Jul 14:24:12 14:35:10 66° 116° (ESE) 14:45:55 29.354 - 29.394 USB, Beacon 29.352 USB
Oscar 16 23 Jul 14:26:10 14:30:26 26° 265° (W) 14:34:43 437.025 USB, Beacon 2401.1428
ITAMSAT 1 23 Jul 14:33:03 14:38:06 49° 260° (W) 14:43:11 435.822 SSB
Gurwin Techsat 1B 23 Jul 14:37:48 14:43:05 77° 74° (ENE) 14:48:25 435.225 FM
AO-27 23 Jul 14:51:04 14:55:47 34° 263° (W) 15:00:31 436.795 MHz FM
Uribyol 2 23 Jul 14:54:49 14:59:22 30° 264° (W) 15:03:55 436.500 FM
AO-Echo 23 Jul 15:03:41 15:08:06 27° 266° (W) 15:12:36 ?
SO-50 23 Jul 15:14:44 15:18:48 33° 314° (NW) 15:22:57 436.795 FM
Uosat F 23 Jul 15:16:30 15:20:56 32° 66° (ENE) 15:25:22 435.120 FM
KITSAT 1 23 Jul 15:33:21 15:41:06 47° 48° (NE) 15:48:47 435.175 FM
OPAL 23 Jul 15:45:49 15:49:12 18° 94° (E) 15:52:35 ?
JAS-2 23 Jul 15:48:28 15:49:42 10° 48° (NE) 15:50:55 435.800 - 435.900 CW/SSB, 435.910 FM
JAS-1B 23 Jul 15:56:10 16:03:47 36° 269° (W) 16:12:23 435.800 - 435.900 CW/SSB
TMSAT-1 23 Jul 15:58:16 16:02:50 29° 265° (W) 16:07:25 436.925 FM
AO-7 23 Jul 16:03:41 16:12:04 86° 70° (ENE) 16:20:29 29.400 - 29.500 MHz
UOSAT-12 23 Jul 16:08:45 16:13:20 79° 122° (ESE) 16:18:03 437.025 FM, 437.400 FM
Gurwin Techsat 1B 23 Jul 16:20:58 16:23:39 14° 271° (W) 16:26:21 435.225 FM
RS-15 23 Jul 16:37:48 16:48:08 43° 321° (NW) 16:58:27 29.354 - 29.394 USB, Beacon 29.352 USB
Hamsat 23 Jul 16:52:47 16:55:39 18° 65° (ENE) 16:58:32 145.90 MHz
Uosat F 23 Jul 16:55:10 16:59:40 32° 263° (W) 17:04:12 435.120 FM
Saudisat 1A 23 Jul 16:58:32 17:02:27 30° 46° (NE) 17:06:20 436.775 MHz
OPAL 23 Jul 17:23:29 17:28:25 58° 290° (WNW) 17:33:24 ?
JAS-2 23 Jul 17:25:40 17:33:05 48° 68° (ENE) 17:40:11 435.800 - 435.900 CW/SSB, 435.910 FM
KITSAT 1 23 Jul 17:28:56 17:36:30 46° 249° (WSW) 17:44:02 435.175 FM
UOSAT-12 23 Jul 17:50:49 17:54:04 18° 322° (NW) 17:57:22 437.025 FM, 437.400 FM
AO-7 23 Jul 17:59:59 18:05:48 20° 269° (W) 18:11:40 29.400 - 29.500 MHz
SO-67 23 Jul 18:17:43 18:20:19 20° 69° (ENE) 18:22:56 435.3500 MHz FM
Hamsat 23 Jul 18:27:23 18:31:20 41° 262° (W) 18:35:18 145.90 MHz
Saudisat 1A 23 Jul 18:38:04 18:42:03 34° 244° (WSW) 18:46:01 436.775 MHz
RS-15 23 Jul 18:56:06 19:04:24 24° 354° (N) 19:12:45 29.354 - 29.394 USB, Beacon 29.352 USB
Oscar 10/S400 23 Jul 18:59:12 19:13:04 22° 139° (SE) 19:31:56 145.825 - 145.975 CW/USB, Beacon 145.810 USB
JAS-2 23 Jul 19:10:51 19:18:06 40° 264° (W) 19:25:09 435.800 - 435.900 CW/SSB, 435.910 FM
HO-68 23 Jul 19:30:53 19:36:39 27° 58° (ENE) 19:42:25 435.675 MHz FM
STRAND 1 23 Jul 19:36:41 19:41:50 79° 104° (ESE) 19:46:55 ?
SO-67 23 Jul 19:50:25 19:53:16 24° 265° (W) 19:56:09 435.3500 MHz FM
Oscar 11 23 Jul 21:06:52 21:10:52 38° 71° (ENE) 21:14:52 145.825 FM, Beacon 2401.500 USB
RS-15 23 Jul 21:11:43 21:21:22 33° 30° (NNE) 21:31:11 29.354 - 29.394 USB, Beacon 29.352 USB
FUNcube-1 23 Jul 21:13:06 21:16:01 18° 65° (ENE) 21:18:54 145.950 - 145.970 MHz USB
HO-68 23 Jul 21:16:42 21:23:49 66° 257° (WSW) 21:30:58 435.675 MHz FM
STRAND 1 23 Jul 21:17:36 21:20:21 15° 301° (WNW) 21:23:05 ?
SO-50 23 Jul 22:04:27 22:08:57 41° 49° (NE) 22:13:30 436.795 FM
MaSat-1 23 Jul 22:13:10 22:16:47 38° 108° (ESE) 22:20:59 437.345 MHz
Oscar 11 23 Jul 22:44:03 22:47:11 20° 267° (W) 22:50:21 145.825 FM, Beacon 2401.500 USB
FUNcube-1 23 Jul 22:47:52 22:52:06 46° 261° (W) 22:56:16 145.950 - 145.970 MHz USB
UOSAT-12 23 Jul 22:58:25 23:01:27 17° 36° (NE) 23:04:27 437.025 FM, 437.400 FM
HO-68 23 Jul 23:11:55 23:12:49 10° 275° (W) 23:13:43 435.675 MHz FM
RS-15 23 Jul 23:24:18 23:35:24 87° 57° (ENE) 23:46:53 29.354 - 29.394 USB, Beacon 29.352 USB
SO-50 23 Jul 23:45:21 23:49:21 27° 246° (WSW) 23:53:23 436.795 FM
Lituanica SAT-1 23 Jul 23:48:05 23:49:46 20° 138° (SE) 23:51:28 437.275 MHz beacon
MaSat-1 23 Jul 23:50:57 23:54:20 24° 311° (NW) 23:58:08 437.345 MHz
PCSat 24 Jul 00:29:57 00:31:05 11° 101° (E) 00:32:13 145.825 MHz
UOSAT-12 24 Jul 00:37:33 00:42:19 87° 56° (NE) 00:47:00 437.025 FM, 437.400 FM
Oscar 16 24 Jul 00:58:48 01:00:54 12° 89° (E) 01:03:00 437.025 USB, Beacon 2401.1428
